{"data":{"norad_id":65169,"epoch":"2026-05-25T04:27:52.763904Z","epoch_age_seconds":54934,"freshness":"FRESH","line1":"1 65169U 25174F   26145.18602736  .00000056  00000+0  97101-4 0  9999","line2":"2 65169  86.4954 259.7881 0002024  89.9558 270.1808 13.24400313 37745","mean_motion":13.24400313,"eccentricity":0.0002024,"inclination_deg":86.4954,"raan_deg":259.7881,"arg_perigee_deg":89.9558,"mean_anomaly_deg":270.1808,"bstar":9.7101e-5,"rev_number":3774,"period_min":108.72845512533,"perigee_km":1166.4316516166,"apogee_km":1169.4863112698,"semimajor_km":7546.0959814432,"source":"CELESTRAK","updated_at":"2026-05-25T13:38:05.174054Z"}}